Time,TemperatureF,DewpointF,PressureIn,WindDirection,WindDirectionDegrees,WindSpeedMPH,WindSpeedGustMPH,Humidity,HourlyPrecipIn,Conditions,Clouds,dailyrainin,SoftwareType,DateUTC
2013-04-06 00:07:00,33.3,30.4,29.83,SSE,162,1.0,6.0,89,0.00,,,0.00,meteohub,2013-04-05 22:07:00,
2013-04-06 00:17:00,33.3,30.4,29.83,South,186,1.0,7.0,89,0.00,,,0.00,meteohub,2013-04-05 22:17:00,
2013-04-06 00:27:00,33.1,30.2,29.83,SSE,167,2.0,7.0,89,0.00,,,0.00,meteohub,2013-04-05 22:27:00,
2013-04-06 00:32:00,33.1,30.2,29.83,SSE,167,1.0,5.0,89,0.00,,,0.00,meteohub,2013-04-05 22:32:00,
2013-04-06 00:42:00,33.1,30.4,29.84,SSW,196,1.0,5.0,90,0.00,,,0.00,meteohub,2013-04-05 22:42:00,
2013-04-06 00:47:00,33.1,30.2,29.84,South,171,1.0,5.0,89,0.00,,,0.00,meteohub,2013-04-05 22:47:00,
2013-04-06 00:57:00,33.1,30.2,29.84,South,189,1.0,6.0,89,0.00,,,0.00,meteohub,2013-04-05 22:57:00,
2013-04-06 01:07:00,33.1,30.4,29.84,South,171,1.0,6.0,90,0.00,,,0.00,meteohub,2013-04-05 23:07:00,
2013-04-06 01:17:00,33.1,30.4,29.85,SSE,161,5.0,6.0,90,0.00,,,0.00,meteohub,2013-04-05 23:17:00,
2013-04-06 01:22:00,33.1,30.4,29.85,SSE,158,3.0,6.0,90,0.00,,,0.00,meteohub,2013-04-05 23:22:00,
2013-04-06 01:27:00,33.1,30.4,29.84,SSE,163,4.0,6.0,90,0.00,,,0.00,meteohub,2013-04-05 23:27:00,
2013-04-06 01:32:00,33.1,30.4,29.85,South,171,1.0,9.0,90,0.00,,,0.00,meteohub,2013-04-05 23:32:00,
2013-04-06 01:42:00,32.9,30.4,29.85,SSE,165,1.0,8.0,90,0.00,,,0.00,meteohub,2013-04-05 23:42:00,
2013-04-06 01:47:00,32.9,30.4,29.85,South,180,3.0,6.0,90,0.00,,,0.00,meteohub,2013-04-05 23:47:00,
2013-04-06 01:52:00,32.9,30.4,29.85,SSE,161,1.0,7.0,90,0.00,,,0.00,meteohub,2013-04-05 23:52:00,
2013-04-06 01:57:00,32.9,30.4,29.85,SSE,163,2.0,7.0,90,0.00,,,0.00,meteohub,2013-04-05 23:57:00,
2013-04-06 02:02:00,32.9,30.4,29.85,SSE,166,1.0,7.0,90,0.00,,,0.00,meteohub,2013-04-06 00:02:00,
2013-04-06 02:07:00,32.9,30.4,29.85,SSE,166,4.0,6.0,90,0.00,,,0.00,meteohub,2013-04-06 00:07:00,
2013-04-06 02:17:00,32.7,30.4,29.85,South,169,1.0,6.0,91,0.00,,,0.00,meteohub,2013-04-06 00:17:00,
2013-04-06 02:22:00,32.7,30.4,29.85,SSE,162,4.0,6.0,91,0.00,,,0.00,meteohub,2013-04-06 00:22:00,
2013-04-06 02:32:00,32.7,30.4,29.85,SSE,164,5.0,7.0,91,0.00,,,0.00,meteohub,2013-04-06 00:32:00,
2013-04-06 02:42:00,32.7,30.4,29.85,South,174,1.0,7.0,91,0.00,,,0.00,meteohub,2013-04-06 00:42:00,
2013-04-06 02:47:00,32.7,30.4,29.85,South,170,1.0,8.0,91,0.00,,,0.00,meteohub,2013-04-06 00:47:00,
2013-04-06 02:52:00,32.7,30.4,29.85,SSE,163,1.0,8.0,91,0.00,,,0.00,meteohub,2013-04-06 00:52:00,
2013-04-06 02:57:00,32.7,30.4,29.85,South,171,2.0,8.0,91,0.00,,,0.00,meteohub,2013-04-06 00:57:00,
2013-04-06 03:02:00,32.7,30.4,29.85,SSE,160,1.0,7.0,91,0.00,,,0.00,meteohub,2013-04-06 01:02:00,
2013-04-06 03:07:00,32.7,30.4,29.85,SSE,156,6.0,6.0,91,0.00,,,0.00,meteohub,2013-04-06 01:07:00,
2013-04-06 03:12:00,32.7,30.4,29.85,SSE,160,5.0,6.0,91,0.00,,,0.00,meteohub,2013-04-06 01:12:00,
2013-04-06 03:17:00,32.5,30.2,29.85,SSE,157,5.0,6.0,91,0.00,,,0.00,meteohub,2013-04-06 01:17:00,
2013-04-06 03:22:00,32.7,30.4,29.85,SSW,202,0.0,6.0,91,0.00,,,0.00,meteohub,2013-04-06 01:22:00,
2013-04-06 03:27:00,32.7,30.4,29.85,SW,227,4.0,6.0,91,0.00,,,0.00,meteohub,2013-04-06 01:27:00,
2013-04-06 03:37:00,32.5,30.2,29.85,South,182,2.0,7.0,91,0.00,,,0.00,meteohub,2013-04-06 01:37:00,
2013-04-06 03:42:00,32.5,30.2,29.85,South,175,3.0,7.0,91,0.00,,,0.00,meteohub,2013-04-06 01:42:00,
2013-04-06 03:52:00,32.5,30.2,29.86,SSE,165,2.0,8.0,91,0.00,,,0.00,meteohub,2013-04-06 01:52:00,
2013-04-06 03:57:00,32.5,30.6,29.86,South,171,4.0,8.0,92,0.00,,,0.00,meteohub,2013-04-06 01:57:00,
2013-04-06 04:02:00,32.5,30.6,29.86,South,178,1.0,8.0,92,0.00,,,0.00,meteohub,2013-04-06 02:02:00,
2013-04-06 04:07:00,32.5,30.6,29.86,SSE,157,2.0,7.0,92,0.00,,,0.00,meteohub,2013-04-06 02:07:00,
2013-04-06 04:12:00,32.5,30.6,29.86,SSE,162,1.0,6.0,92,0.00,,,0.00,meteohub,2013-04-06 02:12:00,
2013-04-06 04:17:00,32.5,30.6,29.86,South,171,0.0,6.0,92,0.00,,,0.00,meteohub,2013-04-06 02:17:00,
2013-04-06 04:22:00,32.5,30.6,29.86,SSW,207,1.0,6.0,92,0.00,,,0.00,meteohub,2013-04-06 02:22:00,
2013-04-06 04:27:00,32.5,30.6,29.86,SSE,161,1.0,6.0,92,0.00,,,0.00,meteohub,2013-04-06 02:27:00,
2013-04-06 04:32:00,32.5,30.6,29.86,South,184,2.0,8.0,92,0.00,,,0.00,meteohub,2013-04-06 02:32:00,
2013-04-06 04:42:00,32.5,30.6,29.87,SSE,161,1.0,8.0,92,0.00,,,0.00,meteohub,2013-04-06 02:42:00,
2013-04-06 04:47:00,32.5,30.6,29.87,SSE,158,4.0,7.0,92,0.00,,,0.00,meteohub,2013-04-06 02:47:00,
2013-04-06 04:52:00,32.5,30.6,29.87,SSE,155,0.0,7.0,92,0.00,,,0.00,meteohub,2013-04-06 02:52:00,
2013-04-06 04:57:00,32.5,30.6,29.87,SSE,161,5.0,7.0,92,0.00,,,0.00,meteohub,2013-04-06 02:57:00,
2013-04-06 05:07:00,32.5,30.6,29.87,SSE,165,1.0,7.0,92,0.00,,,0.00,meteohub,2013-04-06 03:07:00,
2013-04-06 05:17:00,32.5,30.6,29.87,SSE,151,4.0,7.0,92,0.00,,,0.00,meteohub,2013-04-06 03:17:00,
2013-04-06 05:27:00,32.5,30.7,29.88,South,180,2.0,8.0,93,0.00,,,0.00,meteohub,2013-04-06 03:27:00,
2013-04-06 05:32:00,32.5,30.6,29.88,SSE,168,5.0,8.0,92,0.00,,,0.00,meteohub,2013-04-06 03:32:00,
2013-04-06 05:37:00,32.5,30.7,29.88,SSE,150,3.0,8.0,93,0.00,,,0.00,meteohub,2013-04-06 03:37:00,
2013-04-06 05:42:00,32.5,30.7,29.88,South,184,1.0,8.0,93,0.00,,,0.00,meteohub,2013-04-06 03:42:00,
2013-04-06 05:47:00,32.5,30.7,29.88,South,177,4.0,8.0,93,0.00,,,0.00,meteohub,2013-04-06 03:47:00,
2013-04-06 05:53:00,32.5,30.7,29.88,South,189,6.0,8.0,93,0.00,,,0.00,meteohub,2013-04-06 03:53:00,
2013-04-06 06:02:00,32.5,30.7,29.88,SW,221,2.0,7.0,93,0.00,,,0.00,meteohub,2013-04-06 04:02:00,
2013-04-06 06:07:00,32.5,30.7,29.88,SSE,158,4.0,8.0,93,0.00,,,0.00,meteohub,2013-04-06 04:07:00,
2013-04-06 06:12:00,32.5,30.7,29.88,SSE,163,1.0,8.0,93,0.00,,,0.00,meteohub,2013-04-06 04:12:00,
2013-04-06 06:17:00,32.5,30.7,29.89,SSE,165,4.0,8.0,93,0.00,,,0.00,meteohub,2013-04-06 04:17:00,
2013-04-06 06:22:00,32.5,30.7,29.89,SSE,166,2.0,6.0,93,0.00,,,0.00,meteohub,2013-04-06 04:22:00,
2013-04-06 06:32:00,32.5,30.7,29.89,SSW,195,1.0,6.0,93,0.00,,,0.00,meteohub,2013-04-06 04:32:00,
2013-04-06 06:37:00,32.5,30.7,29.89,SSE,168,1.0,6.0,93,0.00,,,0.00,meteohub,2013-04-06 04:37:00,
2013-04-06 06:42:00,32.5,30.7,29.89,SSE,163,4.0,6.0,93,0.00,,,0.00,meteohub,2013-04-06 04:42:00,
2013-04-06 06:47:00,32.5,30.7,29.89,South,171,4.0,5.0,93,0.00,,,0.00,meteohub,2013-04-06 04:47:00,
2013-04-06 06:52:00,32.5,30.7,29.90,South,169,1.0,6.0,93,0.00,,,0.00,meteohub,2013-04-06 04:52:00,
2013-04-06 06:57:00,32.5,30.7,29.90,SSE,159,5.0,6.0,93,0.00,,,0.00,meteohub,2013-04-06 04:57:00,
2013-04-06 07:07:00,32.5,30.7,29.90,South,170,2.0,5.0,93,0.00,,,0.00,meteohub,2013-04-06 05:07:00,
2013-04-06 07:12:00,32.5,30.7,29.90,SSE,162,1.0,5.0,93,0.00,,,0.00,meteohub,2013-04-06 05:12:00,
2013-04-06 07:22:00,32.5,30.7,29.90,SSE,163,0.0,6.0,93,0.00,,,0.00,meteohub,2013-04-06 05:22:00,
2013-04-06 07:27:00,32.5,30.7,29.90,SSE,164,1.0,6.0,93,0.00,,,0.00,meteohub,2013-04-06 05:27:00,
2013-04-06 07:32:00,32.5,30.7,29.91,SSE,168,1.0,5.0,93,0.00,,,0.00,meteohub,2013-04-06 05:32:00,
2013-04-06 07:37:00,32.5,30.7,29.90,SSE,163,2.0,5.0,93,0.00,,,0.00,meteohub,2013-04-06 05:37:00,
2013-04-06 07:42:00,32.5,30.7,29.91,SSE,160,2.0,5.0,93,0.00,,,0.00,meteohub,2013-04-06 05:42:00,
2013-04-06 07:52:00,32.7,30.9,29.91,South,180,2.0,6.0,93,0.00,,,0.00,meteohub,2013-04-06 05:52:00,
2013-04-06 08:02:00,32.7,30.7,29.91,SSE,166,0.0,6.0,92,0.00,,,0.00,meteohub,2013-04-06 06:02:00,
2013-04-06 08:07:00,32.9,30.9,29.92,SSW,207,1.0,7.0,92,0.00,,,0.00,meteohub,2013-04-06 06:07:00,
2013-04-06 08:12:00,32.9,30.9,29.92,SSE,167,2.0,9.0,92,0.00,,,0.00,meteohub,2013-04-06 06:12:00,
2013-04-06 08:22:00,33.1,31.1,29.92,SSE,159,1.0,7.0,92,0.00,,,0.00,meteohub,2013-04-06 06:22:00,
2013-04-06 08:27:00,33.1,31.3,29.92,South,183,1.0,7.0,93,0.00,,,0.00,meteohub,2013-04-06 06:27:00,
2013-04-06 08:32:00,33.1,31.3,29.92,South,171,1.0,7.0,93,0.00,,,0.00,meteohub,2013-04-06 06:32:00,
2013-04-06 08:42:00,33.1,31.3,29.92,SSE,167,1.0,5.0,93,0.00,,,0.00,meteohub,2013-04-06 06:42:00,
2013-04-06 08:47:00,33.1,31.3,29.92,SSW,197,1.0,5.0,93,0.00,,,0.00,meteohub,2013-04-06 06:47:00,
2013-04-06 08:52:00,33.1,31.3,29.93,SSE,166,4.0,8.0,93,0.00,,,0.00,meteohub,2013-04-06 06:52:00,
2013-04-06 08:57:00,33.3,31.5,29.92,South,179,1.0,8.0,93,0.00,,,0.00,meteohub,2013-04-06 06:57:00,
2013-04-06 09:02:00,33.4,31.6,29.93,SSW,192,1.0,8.0,93,0.00,,,0.00,meteohub,2013-04-06 07:02:00,
2013-04-06 09:12:00,33.4,31.3,29.93,SSW,195,1.0,5.0,92,0.00,,,0.00,meteohub,2013-04-06 07:12:00,
2013-04-06 09:22:00,34.0,31.8,29.93,South,172,1.0,5.0,92,0.00,,,0.00,meteohub,2013-04-06 07:22:00,
2013-04-06 09:32:00,34.2,31.5,29.93,SW,219,2.0,5.0,90,0.00,,,0.00,meteohub,2013-04-06 07:32:00,
2013-04-06 09:37:00,34.3,31.6,29.93,South,170,2.0,6.0,90,0.00,,,0.00,meteohub,2013-04-06 07:37:00,
2013-04-06 09:42:00,34.5,31.8,29.93,South,174,1.0,6.0,90,0.00,,,0.00,meteohub,2013-04-06 07:42:00,
2013-04-06 09:52:00,34.7,31.8,29.93,SSW,192,1.0,6.0,89,0.00,,,0.00,meteohub,2013-04-06 07:52:00,
2013-04-06 09:58:00,34.9,32.0,29.94,SSE,151,2.0,4.0,89,0.00,,,0.00,meteohub,2013-04-06 07:58:00,
2013-04-06 10:07:00,34.5,31.3,29.94,SSW,210,3.0,9.0,88,0.00,,,0.00,meteohub,2013-04-06 08:07:00,
2013-04-06 10:12:00,34.7,31.8,29.94,SSE,166,2.0,7.0,89,0.00,,,0.00,meteohub,2013-04-06 08:12:00,
2013-04-06 10:17:00,34.7,31.5,29.94,SSE,155,5.0,7.0,88,0.00,,,0.00,meteohub,2013-04-06 08:17:00,
2013-04-06 10:22:00,34.5,31.3,29.94,SSW,209,1.0,7.0,88,0.00,,,0.00,meteohub,2013-04-06 08:22:00,
2013-04-06 10:27:00,34.7,31.5,29.94,South,182,4.0,7.0,88,0.00,,,0.00,meteohub,2013-04-06 08:27:00,
2013-04-06 10:32:00,34.7,31.5,29.94,South,169,4.0,7.0,88,0.00,,,0.00,meteohub,2013-04-06 08:32:00,
2013-04-06 10:42:00,34.7,31.5,29.95,SSW,212,1.0,8.0,88,0.00,,,0.00,meteohub,2013-04-06 08:42:00,
2013-04-06 10:47:00,34.9,31.6,29.95,South,184,1.0,8.0,88,0.00,,,0.00,meteohub,2013-04-06 08:47:00,
2013-04-06 10:52:00,34.9,31.6,29.95,SSW,197,2.0,7.0,88,0.00,,,0.00,meteohub,2013-04-06 08:52:00,
2013-04-06 11:02:00,35.1,31.8,29.96,SSW,192,2.0,8.0,88,0.00,,,0.00,meteohub,2013-04-06 09:02:00,
2013-04-06 11:07:00,35.1,31.6,29.96,SW,214,3.0,8.0,87,0.00,,,0.00,meteohub,2013-04-06 09:07:00,
2013-04-06 11:17:00,35.2,31.8,29.96,South,173,2.0,8.0,87,0.00,,,0.00,meteohub,2013-04-06 09:17:00,
2013-04-06 11:27:00,35.6,31.8,29.96,SSE,168,3.0,8.0,86,0.00,,,0.00,meteohub,2013-04-06 09:27:00,
2013-04-06 11:32:00,35.6,31.5,29.96,South,175,4.0,8.0,85,0.00,,,0.00,meteohub,2013-04-06 09:32:00,
2013-04-06 11:37:00,35.6,31.8,29.96,SSE,157,4.0,8.0,86,0.00,,,0.00,meteohub,2013-04-06 09:37:00,
2013-04-06 11:42:00,35.6,31.8,29.96,South,180,1.0,8.0,86,0.00,,,0.00,meteohub,2013-04-06 09:42:00,
2013-04-06 11:47:00,35.6,31.5,29.96,SSE,161,1.0,7.0,85,0.00,,,0.00,meteohub,2013-04-06 09:47:00,
2013-04-06 11:57:00,35.8,31.6,29.96,SSE,165,0.0,6.0,85,0.00,,,0.00,meteohub,2013-04-06 09:57:00,
2013-04-06 12:07:00,36.1,31.8,29.97,South,184,1.0,6.0,84,0.00,,,0.00,meteohub,2013-04-06 10:07:00,
2013-04-06 12:17:00,36.0,31.6,29.97,SSE,148,5.0,8.0,84,0.00,,,0.00,meteohub,2013-04-06 10:17:00,
2013-04-06 12:22:00,36.0,31.8,29.97,South,169,7.0,8.0,85,0.00,,,0.00,meteohub,2013-04-06 10:22:00,
2013-04-06 12:27:00,35.8,31.6,29.97,SSW,200,1.0,8.0,85,0.00,,,0.00,meteohub,2013-04-06 10:27:00,
2013-04-06 12:35:00,36.0,31.8,29.97,SSE,167,5.0,7.0,85,0.00,,,0.00,meteohub,2013-04-06 10:35:00,
2013-04-06 12:42:00,36.0,31.6,29.97,South,173,2.0,8.0,84,0.00,,,0.00,meteohub,2013-04-06 10:42:00,
2013-04-06 12:47:00,36.0,31.8,29.97,South,171,2.0,8.0,85,0.00,,,0.00,meteohub,2013-04-06 10:47:00,
2013-04-06 12:52:00,36.0,31.6,29.98,SSE,163,1.0,8.0,84,0.00,,,0.00,meteohub,2013-04-06 10:52:00,
2013-04-06 12:57:00,36.0,31.8,29.97,SSW,201,1.0,6.0,85,0.00,,,0.00,meteohub,2013-04-06 10:57:00,
2013-04-06 13:02:00,36.0,31.8,29.98,SSW,198,2.0,5.0,85,0.00,,,0.00,meteohub,2013-04-06 11:02:00,
2013-04-06 13:07:00,36.0,31.8,29.98,SSW,193,1.0,6.0,85,0.00,,,0.00,meteohub,2013-04-06 11:07:00,
2013-04-06 13:17:00,36.0,31.8,29.98,SSE,163,2.0,6.0,85,0.00,,,0.00,meteohub,2013-04-06 11:17:00,
2013-04-06 13:22:00,36.0,31.8,29.98,SSE,161,2.0,6.0,85,0.00,,,0.00,meteohub,2013-04-06 11:22:00,
2013-04-06 13:27:00,36.1,32.0,29.98,South,173,2.0,6.0,85,0.00,,,0.00,meteohub,2013-04-06 11:27:00,
2013-04-06 13:32:00,36.3,32.2,29.98,South,186,2.0,6.0,85,0.00,,,0.00,meteohub,2013-04-06 11:32:00,
2013-04-06 13:37:00,36.7,32.4,29.98,South,190,2.0,5.0,84,0.00,,,0.00,meteohub,2013-04-06 11:37:00,
2013-04-06 13:42:00,36.7,32.4,29.98,South,175,2.0,5.0,84,0.00,,,0.00,meteohub,2013-04-06 11:42:00,
2013-04-06 13:52:00,36.7,32.4,29.98,South,185,0.0,6.0,84,0.00,,,0.00,meteohub,2013-04-06 11:52:00,
2013-04-06 13:57:00,36.9,32.2,29.98,South,175,2.0,6.0,83,0.00,,,0.00,meteohub,2013-04-06 11:57:00,
2013-04-06 14:02:00,36.9,32.2,29.98,SSE,165,4.0,9.0,83,0.00,,,0.00,meteohub,2013-04-06 12:02:00,
2013-04-06 14:12:00,36.9,32.2,29.99,SW,221,1.0,9.0,83,0.00,,,0.00,meteohub,2013-04-06 12:12:00,
2013-04-06 14:17:00,36.9,32.2,29.99,SSE,165,4.0,7.0,83,0.00,,,0.00,meteohub,2013-04-06 12:17:00,
2013-04-06 14:22:00,36.9,32.5,29.99,South,172,2.0,5.0,84,0.00,,,0.00,meteohub,2013-04-06 12:22:00,
2013-04-06 14:32:00,36.9,32.2,29.99,South,170,1.0,5.0,83,0.00,,,0.00,meteohub,2013-04-06 12:32:00,
2013-04-06 14:37:00,36.9,32.5,29.99,South,180,2.0,6.0,84,0.00,,,0.00,meteohub,2013-04-06 12:37:00,
2013-04-06 14:47:00,36.7,32.4,29.99,SSW,202,1.0,6.0,84,0.00,,,0.00,meteohub,2013-04-06 12:47:00,
2013-04-06 14:52:00,36.7,32.4,29.99,SSW,200,2.0,6.0,84,0.00,,,0.00,meteohub,2013-04-06 12:52:00,
2013-04-06 15:02:00,36.5,32.4,29.99,SSW,204,1.0,5.0,85,0.00,,,0.00,meteohub,2013-04-06 13:02:00,
2013-04-06 15:12:00,36.3,32.2,29.99,South,169,2.0,5.0,85,0.00,,,0.00,meteohub,2013-04-06 13:12:00,
2013-04-06 15:17:00,36.3,32.2,29.99,SSE,165,2.0,7.0,85,0.00,,,0.00,meteohub,2013-04-06 13:17:00,
2013-04-06 15:22:00,36.3,32.2,29.99,SSE,159,1.0,7.0,85,0.00,,,0.00,meteohub,2013-04-06 13:22:00,
2013-04-06 15:32:00,36.3,32.2,29.99,SSW,198,0.0,7.0,85,0.00,,,0.00,meteohub,2013-04-06 13:32:00,
2013-04-06 15:37:00,36.5,32.4,29.99,South,182,2.0,7.0,85,0.00,,,0.00,meteohub,2013-04-06 13:37:00,
2013-04-06 15:42:00,36.5,32.4,29.99,South,181,0.0,5.0,85,0.00,,,0.00,meteohub,2013-04-06 13:42:00,
2013-04-06 15:52:00,36.5,32.4,29.99,South,180,2.0,5.0,85,0.00,,,0.00,meteohub,2013-04-06 13:52:00,
2013-04-06 15:57:00,36.3,32.2,29.99,South,171,3.0,7.0,85,0.00,,,0.00,meteohub,2013-04-06 13:57:00,
2013-04-06 16:02:00,36.1,32.0,29.99,SSW,192,3.0,7.0,85,0.00,,,0.00,meteohub,2013-04-06 14:02:00,
2013-04-06 16:07:00,36.1,32.4,29.99,South,187,2.0,7.0,86,0.00,,,0.00,meteohub,2013-04-06 14:07:00,
2013-04-06 16:12:00,36.1,32.4,29.99,South,175,0.0,6.0,86,0.00,,,0.00,meteohub,2013-04-06 14:12:00,
2013-04-06 16:22:00,36.1,32.0,29.99,WSW,254,3.0,6.0,85,0.00,,,0.00,meteohub,2013-04-06 14:22:00,
2013-04-06 16:32:00,36.0,32.2,30.00,SSW,196,1.0,6.0,86,0.00,,,0.00,meteohub,2013-04-06 14:32:00,
2013-04-06 16:37:00,36.0,32.2,30.00,South,178,2.0,6.0,86,0.00,,,0.00,meteohub,2013-04-06 14:37:00,
2013-04-06 16:47:00,36.0,32.2,30.00,SSW,211,1.0,8.0,86,0.00,,,0.00,meteohub,2013-04-06 14:47:00,
2013-04-06 16:52:00,35.8,32.0,30.00,SSE,157,2.0,8.0,86,0.00,,,0.00,meteohub,2013-04-06 14:52:00,
2013-04-06 17:02:00,35.8,32.0,30.00,South,170,3.0,6.0,86,0.00,,,0.00,meteohub,2013-04-06 15:02:00,
2013-04-06 17:07:00,35.8,32.0,30.00,SSE,157,2.0,7.0,86,0.00,,,0.00,meteohub,2013-04-06 15:07:00,
2013-04-06 17:17:00,35.4,31.6,30.00,SSW,192,2.0,7.0,86,0.00,,,0.00,meteohub,2013-04-06 15:17:00,
2013-04-06 17:22:00,35.4,31.6,30.00,SW,231,2.0,6.0,86,0.00,,,0.00,meteohub,2013-04-06 15:22:00,
2013-04-06 17:32:00,35.4,31.6,30.01,South,173,1.0,7.0,86,0.00,,,0.00,meteohub,2013-04-06 15:32:00,
2013-04-06 17:37:00,35.4,31.6,30.01,South,178,4.0,7.0,86,0.00,,,0.00,meteohub,2013-04-06 15:37:00,
2013-04-06 17:42:00,35.4,32.0,30.01,South,180,1.0,7.0,87,0.00,,,0.00,meteohub,2013-04-06 15:42:00,
2013-04-06 17:47:00,35.4,32.0,30.01,SSE,155,4.0,8.0,87,0.00,,,0.00,meteohub,2013-04-06 15:47:00,
2013-04-06 17:57:00,35.1,31.8,30.01,South,181,1.0,8.0,88,0.00,,,0.00,meteohub,2013-04-06 15:57:00,
2013-04-06 18:02:00,35.1,32.2,30.01,SSE,162,2.0,6.0,89,0.00,,,0.00,meteohub,2013-04-06 16:02:00,
2013-04-06 18:12:00,34.9,32.2,30.02,South,180,0.0,6.0,90,0.00,,,0.00,meteohub,2013-04-06 16:12:00,
2013-04-06 18:17:00,34.7,32.0,30.02,South,179,0.0,6.0,90,0.00,,,0.00,meteohub,2013-04-06 16:17:00,
2013-04-06 18:27:00,34.5,31.8,30.02,SSE,163,0.0,6.0,90,0.00,,,0.00,meteohub,2013-04-06 16:27:00,
2013-04-06 18:32:00,34.5,31.8,30.02,South,180,1.0,6.0,90,0.00,,,0.00,meteohub,2013-04-06 16:32:00,
2013-04-06 18:37:00,34.5,31.8,30.02,South,171,1.0,6.0,90,0.00,,,0.00,meteohub,2013-04-06 16:37:00,
2013-04-06 18:47:00,34.7,32.0,30.03,South,188,2.0,7.0,90,0.00,,,0.00,meteohub,2013-04-06 16:47:00,
2013-04-06 18:52:00,34.9,32.0,30.03,South,177,3.0,7.0,89,0.00,,,0.00,meteohub,2013-04-06 16:52:00,
2013-04-06 18:57:00,34.7,31.5,30.03,SSE,164,1.0,6.0,88,0.00,,,0.00,meteohub,2013-04-06 16:57:00,
2013-04-06 19:07:00,34.7,31.8,30.03,SSW,193,4.0,10.0,89,0.00,,,0.00,meteohub,2013-04-06 17:07:00,
2013-04-06 19:17:00,34.5,31.6,30.03,SSE,163,2.0,10.0,89,0.00,,,0.00,meteohub,2013-04-06 17:17:00,
2013-04-06 19:27:00,34.3,31.5,30.04,SW,224,0.0,8.0,89,0.00,,,0.00,meteohub,2013-04-06 17:27:00,
2013-04-06 19:32:00,34.2,31.3,30.04,SSW,196,1.0,8.0,89,0.00,,,0.00,meteohub,2013-04-06 17:32:00,
2013-04-06 19:42:00,34.0,31.1,30.04,SSE,164,2.0,8.0,89,0.00,,,0.00,meteohub,2013-04-06 17:42:00,
2013-04-06 19:47:00,34.0,31.1,30.05,SW,217,1.0,8.0,89,0.00,,,0.00,meteohub,2013-04-06 17:47:00,
2013-04-06 19:57:00,34.0,31.1,30.05,SSE,157,0.0,7.0,89,0.00,,,0.00,meteohub,2013-04-06 17:57:00,
2013-04-06 20:02:00,34.0,31.1,30.06,South,177,1.0,7.0,89,0.00,,,0.00,meteohub,2013-04-06 18:02:00,
2013-04-06 20:12:00,33.8,31.1,30.06,South,186,0.0,6.0,90,0.00,,,0.00,meteohub,2013-04-06 18:12:00,
2013-04-06 20:17:00,33.8,31.1,30.06,South,184,2.0,6.0,90,0.00,,,0.00,meteohub,2013-04-06 18:17:00,
2013-04-06 20:22:00,33.8,31.1,30.06,South,182,1.0,6.0,90,0.00,,,0.00,meteohub,2013-04-06 18:22:00,
2013-04-06 20:32:00,33.8,31.1,30.06,SSE,157,1.0,4.0,90,0.00,,,0.00,meteohub,2013-04-06 18:32:00,
2013-04-06 20:37:00,33.6,30.9,30.06,South,183,2.0,6.0,90,0.00,,,0.00,meteohub,2013-04-06 18:37:00,
2013-04-06 20:47:00,33.6,30.9,30.07,South,178,0.0,7.0,90,0.00,,,0.00,meteohub,2013-04-06 18:47:00,
2013-04-06 20:52:00,33.6,31.3,30.07,South,175,0.0,4.0,91,0.00,,,0.00,meteohub,2013-04-06 18:52:00,
2013-04-06 20:57:00,33.6,30.9,30.07,SSE,154,6.0,6.0,90,0.00,,,0.00,meteohub,2013-04-06 18:57:00,
2013-04-06 21:07:00,33.6,31.3,30.07,SSE,164,0.0,7.0,91,0.00,,,0.00,meteohub,2013-04-06 19:07:00,
2013-04-06 21:17:00,33.4,31.1,30.07,SSE,163,2.0,5.0,91,0.00,,,0.00,meteohub,2013-04-06 19:17:00,
2013-04-06 21:27:00,33.4,30.7,30.08,South,173,5.0,5.0,90,0.00,,,0.00,meteohub,2013-04-06 19:27:00,
2013-04-06 21:32:00,33.4,30.7,30.08,South,186,1.0,7.0,90,0.00,,,0.00,meteohub,2013-04-06 19:32:00,
2013-04-06 21:42:00,33.4,30.7,30.08,SSE,163,4.0,7.0,90,0.00,,,0.00,meteohub,2013-04-06 19:42:00,
2013-04-06 21:47:00,33.4,30.7,30.08,SSE,157,0.0,6.0,90,0.00,,,0.00,meteohub,2013-04-06 19:47:00,
2013-04-06 21:52:00,33.4,30.7,30.08,South,169,1.0,6.0,90,0.00,,,0.00,meteohub,2013-04-06 19:52:00,
2013-04-06 21:57:00,33.4,30.7,30.09,South,171,1.0,6.0,90,0.00,,,0.00,meteohub,2013-04-06 19:57:00,
2013-04-06 22:02:00,33.3,30.6,30.09,SSE,162,3.0,7.0,90,0.00,,,0.00,meteohub,2013-04-06 20:02:00,
2013-04-06 22:07:00,33.3,30.6,30.09,South,186,0.0,7.0,90,0.00,,,0.00,meteohub,2013-04-06 20:07:00,
2013-04-06 22:17:00,33.3,30.6,30.09,South,186,1.0,6.0,90,0.00,,,0.00,meteohub,2013-04-06 20:17:00,
2013-04-06 22:22:00,33.3,30.9,30.09,SSW,212,1.0,6.0,91,0.00,,,0.00,meteohub,2013-04-06 20:22:00,
2013-04-06 22:32:00,33.3,30.9,30.09,South,190,2.0,4.0,91,0.00,,,0.00,meteohub,2013-04-06 20:32:00,
2013-04-06 22:42:00,33.1,30.7,30.09,SSE,157,2.0,5.0,91,0.00,,,0.00,meteohub,2013-04-06 20:42:00,
2013-04-06 22:47:00,33.1,30.7,30.09,SSE,163,1.0,6.0,91,0.00,,,0.00,meteohub,2013-04-06 20:47:00,
2013-04-06 22:57:00,33.1,30.7,30.09,South,171,2.0,6.0,91,0.00,,,0.00,meteohub,2013-04-06 20:57:00,
2013-04-06 23:02:00,33.1,30.7,30.09,South,172,1.0,5.0,91,0.00,,,0.00,meteohub,2013-04-06 21:02:00,
2013-04-06 23:12:00,33.1,30.7,30.09,SSE,157,0.0,5.0,91,0.00,,,0.00,meteohub,2013-04-06 21:12:00,
2013-04-06 23:22:00,33.1,30.7,30.09,SSE,161,5.0,6.0,91,0.00,,,0.00,meteohub,2013-04-06 21:22:00,
2013-04-06 23:27:00,33.1,30.7,30.09,SSE,162,0.0,6.0,91,0.00,,,0.00,meteohub,2013-04-06 21:27:00,
2013-04-06 23:32:00,33.1,30.7,30.09,SSE,162,1.0,5.0,91,0.00,,,0.00,meteohub,2013-04-06 21:32:00,
2013-04-06 23:37:00,33.1,30.7,30.10,SSE,162,0.0,5.0,91,0.00,,,0.00,meteohub,2013-04-06 21:37:00,
2013-04-06 23:47:00,33.1,30.7,30.10,SSE,162,2.0,5.0,91,0.00,,,0.00,meteohub,2013-04-06 21:47:00,
2013-04-06 23:57:00,33.1,30.7,30.10,SSE,160,1.0,5.0,91,0.00,,,0.00,meteohub,2013-04-06 21:57:00,